Weather History for Yankton, SD

Change the Weather History Date:

Wednesday, February 13, 2013

  Actual Average Record
Temperature  
Mean Temperature 36 °F -  
Max Temperature 48 °F 33 °F 64 °F (1990)
Min Temperature 24 °F 10 °F -18 °F (1955)
Degree Days  
Heating Degree Days 29    
Moisture  
Dew Point 28 °F    
Average Humidity 73    
Maximum Humidity 93    
Minimum Humidity 50    
Precipitation  
Precipitation 0.00 in - - ()
Sea Level Pressure  
Sea Level Pressure 29.75 in    
Wind  
Wind Speed 7 mph (WSW)    
Max Wind Speed 21 mph    
Max Gust Speed 26 mph    
Visibility 10 miles    
Events      
Averages and records for this station are not official NWS values.
T = Trace of Precipitation, MM = Missing Value Source: NWS Daily Summary

Daily Weather History Graph

Daily Weather History Graph

Search for Another Location

Airport:

Trip Planner

Search our weather history database for the weather conditions in past years. The results will help you decide how hot, cold, wet, or windy it might be!

Date:

Astronomy

Feb. 13, 2013 Rise Set
Actual Time 7:29 AM CST 5:58 PM CST
Civil Twilight 7:00 AM CST 6:28 PM CST
Nautical Twilight 6:26 AM CST 7:01 PM CST
Astronomical Twilight 5:54 AM CST 7:34 PM CST
Moon 8:52 AM CST (2/13) 10:10 PM CST (2/13)
Length of Visible Light 11h 27m
Length of Day
10h 29m
Waxing Crescent, 14% of the Moon is Illuminated
Feb 13
Waxing Crescent
Feb 17
First Quarter
Feb 25
Full
Mar 4
Last Quarter
Mar 11
New

Hourly Weather History & Observations

Time (CST) Temp. Windchill Dew Point Humidity Pressure Visibility Wind Dir Wind Speed Gust Speed Precip Events Conditions
12:15 AM 28.4 °F 24.6 °F 24.8 °F 86% 29.88 in 10.0 mi West 3.5 mph - N/A   Clear
12:35 AM 30.2 °F 25.4 °F 24.8 °F 80% 29.88 in 10.0 mi WSW 4.6 mph - N/A   Mostly Cloudy
12:55 AM 30.2 °F - 24.8 °F 80% 29.87 in 10.0 mi Calm Calm - N/A   Overcast
1:15 AM 30.2 °F 26.7 °F 24.8 °F 80% 29.86 in 10.0 mi WSW 3.5 mph - N/A   Overcast
1:35 AM 30.2 °F 25.4 °F 24.8 °F 80% 29.85 in 10.0 mi SW 4.6 mph - N/A   Overcast
1:55 AM 28.4 °F - 24.8 °F 86% 29.85 in 10.0 mi Calm Calm - N/A   Partly Cloudy
2:15 AM 28.4 °F - 24.8 °F 86% 29.85 in 10.0 mi Calm Calm - N/A   Partly Cloudy
2:35 AM 26.6 °F - 24.8 °F 93% 29.85 in 10.0 mi Calm Calm - N/A   Mostly Cloudy
2:55 AM 28.4 °F 23.3 °F 24.8 °F 86% 29.85 in 10.0 mi WSW 4.6 mph - N/A   Partly Cloudy
3:15 AM 28.4 °F 21.2 °F 24.8 °F 86% 29.84 in 10.0 mi WSW 6.9 mph - N/A   Clear
3:35 AM 28.4 °F 24.6 °F 23.0 °F 80% 29.83 in 10.0 mi WNW 3.5 mph - N/A   Clear
3:55 AM 28.4 °F 24.6 °F 24.8 °F 86% 29.83 in 10.0 mi WNW 3.5 mph - N/A   Clear
4:15 AM 28.4 °F 24.6 °F 24.8 °F 86% 29.82 in 10.0 mi WNW 3.5 mph - N/A   Clear
4:35 AM 26.6 °F - 23.0 °F 86% 29.82 in 10.0 mi Calm Calm - N/A   Clear
4:55 AM 24.8 °F 20.5 °F 23.0 °F 93% 29.81 in 10.0 mi SSE 3.5 mph - N/A   Clear
5:15 AM 26.6 °F - 23.0 °F 86% 29.81 in 10.0 mi Calm Calm - N/A   Clear
5:35 AM 26.6 °F 22.6 °F 24.8 °F 93% 29.81 in 10.0 mi SSW 3.5 mph - N/A   Clear
5:55 AM 24.8 °F 19.1 °F 23.0 °F 93% 29.80 in 10.0 mi SW 4.6 mph - N/A   Clear
6:15 AM 26.6 °F 21.2 °F 24.8 °F 93% 29.81 in 10.0 mi West 4.6 mph - N/A   Clear
6:35 AM 26.6 °F - 23.0 °F 86% 29.80 in 10.0 mi Calm Calm - N/A   Clear
6:55 AM 26.6 °F - 23.0 °F 86% 29.80 in 10.0 mi Calm Calm - N/A   Partly Cloudy
7:15 AM 26.6 °F 19.1 °F 24.8 °F 93% 29.79 in 10.0 mi SSW 6.9 mph - N/A   Partly Cloudy
7:35 AM 26.6 °F 17.5 °F 24.8 °F 93% 29.79 in 10.0 mi SW 9.2 mph - N/A   Clear
7:55 AM 26.6 °F 22.6 °F 23.0 °F 86% 29.79 in 10.0 mi WSW 3.5 mph - N/A   Clear
8:15 AM 26.6 °F 21.2 °F 24.8 °F 93% 29.79 in 10.0 mi SW 4.6 mph - N/A   Clear
8:35 AM 28.4 °F 22.2 °F 26.6 °F 93% 29.79 in 10.0 mi SW 5.8 mph - N/A   Clear
8:55 AM 30.2 °F 24.3 °F 24.8 °F 80% 29.78 in 10.0 mi SSW 5.8 mph - N/A   Clear
9:15 AM 32.0 °F 25.6 °F 26.6 °F 80% 29.78 in 10.0 mi SSW 6.9 mph - N/A   Clear
9:35 AM 33.8 °F 27.7 °F 26.6 °F 75% 29.77 in 10.0 mi SW 6.9 mph - N/A   Clear
9:55 AM 35.6 °F 29.9 °F 26.6 °F 70% 29.77 in 10.0 mi SW 6.9 mph - N/A   Clear
10:15 AM 37.4 °F 32.8 °F 28.4 °F 70% 29.76 in 10.0 mi SW 5.8 mph - N/A   Clear
10:35 AM 39.2 °F 35.0 °F 28.4 °F 65% 29.76 in 10.0 mi SW 5.8 mph - N/A   Clear
10:55 AM 41.0 °F 34.7 °F 28.4 °F 61% 29.76 in 10.0 mi WSW 10.4 mph - N/A   Clear
11:15 AM 41.0 °F 33.9 °F 28.4 °F 61% 29.76 in 10.0 mi WSW 12.7 mph - N/A   Clear
11:35 AM 41.0 °F 33.9 °F 28.4 °F 61% 29.76 in 10.0 mi West 12.7 mph - N/A   Clear
11:55 AM 42.8 °F 36.6 °F 28.4 °F 57% 29.75 in 10.0 mi West 11.5 mph - N/A   Clear
12:15 PM 42.8 °F 37.5 °F 28.4 °F 57% 29.74 in 10.0 mi West 9.2 mph - N/A   Clear
12:55 PM 44.6 °F 38.8 °F 28.4 °F 53% 29.71 in 10.0 mi SSW 11.5 mph - N/A   Clear
1:15 PM 44.6 °F 38.8 °F 28.4 °F 53% 29.70 in 10.0 mi SSW 11.5 mph - N/A   Clear
1:35 PM 46.4 °F 41.1 °F 30.2 °F 53% 29.69 in 10.0 mi SW 11.5 mph - N/A   Clear
1:55 PM 46.4 °F 40.7 °F 30.2 °F 53% 29.68 in 10.0 mi SW 12.7 mph - N/A   Partly Cloudy
2:15 PM 46.4 °F 41.1 °F 30.2 °F 53% 29.67 in 10.0 mi SW 11.5 mph - N/A   Mostly Cloudy
2:35 PM 46.4 °F 40.1 °F 30.2 °F 53% 29.66 in 10.0 mi SW 15.0 mph - N/A   Mostly Cloudy
2:55 PM 46.4 °F 40.4 °F 30.2 °F 53% 29.66 in 10.0 mi SW 13.8 mph 21.9 mph N/A   Mostly Cloudy
3:15 PM 46.4 °F 40.1 °F 30.2 °F 53% 29.66 in 10.0 mi WSW 15.0 mph 20.7 mph N/A   Overcast
3:35 PM 46.4 °F 39.8 °F 30.2 °F 53% 29.66 in 10.0 mi WSW 16.1 mph 19.6 mph N/A   Overcast
3:55 PM 46.4 °F 38.7 °F 30.2 °F 53% 29.67 in 10.0 mi West 20.7 mph 26.5 mph N/A   Mostly Cloudy
4:15 PM 48.2 °F - 30.2 °F 50% 29.67 in 10.0 mi West 17.3 mph 23.0 mph N/A   Mostly Cloudy
4:35 PM 46.4 °F 39.5 °F 30.2 °F 53% 29.66 in 10.0 mi WSW 17.3 mph - N/A   Mostly Cloudy
4:55 PM 46.4 °F 40.1 °F 32.0 °F 57% 29.66 in 10.0 mi WSW 15.0 mph 19.6 mph N/A   Overcast
5:15 PM 44.6 °F 38.4 °F 30.2 °F 57% 29.67 in 10.0 mi WSW 12.7 mph - N/A   Scattered Clouds
5:35 PM 44.6 °F 38.8 °F 30.2 °F 57% 29.67 in 10.0 mi WSW 11.5 mph - N/A   Clear
5:55 PM 42.8 °F 36.6 °F 30.2 °F 61% 29.67 in 10.0 mi WSW 11.5 mph - N/A   Partly Cloudy
6:15 PM 42.8 °F 35.8 °F 32.0 °F 66% 29.67 in 10.0 mi WSW 13.8 mph - N/A   Mostly Cloudy
6:35 PM 42.8 °F 35.8 °F 32.0 °F 66% 29.67 in 10.0 mi West 13.8 mph - N/A   Mostly Cloudy
6:55 PM 42.8 °F 37.0 °F 32.0 °F 66% 29.68 in 10.0 mi West 10.4 mph - N/A   Scattered Clouds
7:15 PM 42.8 °F 34.5 °F 30.2 °F 61% 29.68 in 10.0 mi West 18.4 mph - N/A   Partly Cloudy
7:35 PM 42.8 °F 34.5 °F 30.2 °F 61% 29.69 in 10.0 mi West 18.4 mph 23.0 mph N/A   Clear
7:55 PM 42.8 °F 34.5 °F 30.2 °F 61% 29.70 in 10.0 mi West 18.4 mph - N/A   Clear
8:15 PM 42.8 °F 35.4 °F 30.2 °F 61% 29.71 in 10.0 mi West 15.0 mph - N/A   Clear
8:35 PM 41.0 °F 33.1 °F 30.2 °F 65% 29.71 in 10.0 mi West 15.0 mph 20.7 mph N/A   Clear
8:55 PM 39.2 °F 31.2 °F 30.2 °F 70% 29.71 in 10.0 mi West 13.8 mph - N/A   Clear
9:15 PM 39.2 °F 30.8 °F 30.2 °F 70% 29.72 in 10.0 mi West 15.0 mph - N/A   Partly Cloudy
9:35 PM 37.4 °F 29.8 °F 30.2 °F 75% 29.73 in 10.0 mi West 11.5 mph - N/A   Scattered Clouds
9:55 PM 37.4 °F 30.3 °F 30.2 °F 75% 29.74 in 10.0 mi WNW 10.4 mph - N/A   Partly Cloudy
10:15 PM 35.6 °F 28.0 °F 30.2 °F 81% 29.74 in 10.0 mi West 10.4 mph - N/A   Clear
10:35 PM 35.6 °F 27.5 °F 30.2 °F 81% 29.74 in 10.0 mi West 11.5 mph - N/A   Clear
10:55 PM 35.6 °F 27.1 °F 30.2 °F 81% 29.75 in 10.0 mi West 12.7 mph - N/A   Clear
11:15 PM 35.6 °F 27.1 °F 30.2 °F 81% 29.76 in 10.0 mi West 12.7 mph - N/A   Clear
11:35 PM 35.6 °F 26.2 °F 30.2 °F 81% 29.76 in 10.0 mi West 15.0 mph - N/A   Partly Cloudy
11:55 PM 37.4 °F 27.8 °F 30.2 °F 75% 29.77 in 10.0 mi West 17.3 mph 21.9 mph N/A   Mostly Cloudy